| time (UTC) | temp C | wind direction | speed KPH | gust KPH | rain 1hr cm | rain 24hr cm | rain mn cm | humidity % | barometer mb |
| 20260510063932 | 11 | 38 | 4.8 | 16.1 | 0.00 | 0.00 | 0.00 | 87 | 1015.0 |
| 20260510063328 | 12 | 32 | 4.8 | 16.1 | 0.00 | 0.00 | 0.00 | 80 | 1015.0 |
| 20260510062306 | 12 | 57 | 4.8 | 11.3 | 0.00 | 0.00 | 0.00 | 81 | 1015.0 |
| 20260510061427 | 11 | 54 | 4.8 | 16.1 | 0.00 | 0.00 | 0.00 | 83 | 1015.0 |
| 20260510060713 | 10 | 51 | 3.2 | 8.0 | 0.00 | 0.00 | 0.00 | 88 | 1015.1 |
| 20260510060527 | 10 | 48 | 3.2 | 6.4 | 0.00 | 0.00 | 0.00 | 88 | 1015.0 |
| 20260510060324 | 11 | 38 | 4.8 | 16.1 | 0.00 | 0.00 | 0.00 | 85 | 1015.0 |
| 20260510054306 | 11 | 40 | 3.2 | 11.3 | 0.00 | 0.00 | 0.00 | 88 | 1015.1 |
| 20260510050307 | 10 | 22 | 1.6 | 8.0 | 0.00 | 0.00 | 0.00 | 87 | 1015.1 |
| 20260510045306 | 10 | 32 | 3.2 | 6.4 | 0.00 | 0.00 | 0.00 | 87 | 1015.0 |
| 20260510044303 | 10 | 43 | 1.6 | 4.8 | 0.00 | 0.00 | 0.00 | 88 | 1015.1 |
| 20260510043303 | 10 | 43 | 1.6 | 6.4 | 0.00 | 0.00 | 0.00 | 88 | 1015.0 |
| 20260510042306 | 10 | 40 | 1.6 | 6.4 | 0.00 | 0.00 | 0.00 | 89 | 1015.1 |
| 20260510041312 | 10 | 41 | 1.6 | 8.0 | 0.00 | 0.00 | 0.00 | 89 | 1014.9 |
| 20260510040259 | 10 | 58 | 3.2 | 6.4 | 0.00 | 0.00 | 0.00 | 89 | 1014.8 |
| 20260510035306 | 10 | 58 | 1.6 | 4.8 | 0.00 | 0.00 | 0.00 | 89 | 1014.8 |
| 20260510034303 | 10 | 58 | 1.6 | 11.3 | 0.00 | 0.00 | 0.00 | 89 | 1015.0 |
| 20260510033301 | 10 | 333 | 1.6 | 6.4 | 0.00 | 0.00 | 0.00 | 89 | 1014.9 |
| 20260510032305 | 10 | 327 | 1.6 | 8.0 | 0.00 | 0.00 | 0.00 | 89 | 1015.1 |
| 20260510031257 | 10 | 302 | 1.6 | 4.8 | 0.00 | 0.00 | 0.00 | 89 | 1015.0 |
| 20260510030348 | 10 | 35 | 1.6 | 3.2 | 0.00 | 0.00 | 0.00 | 88 | 1015.0 |
| 20260510025255 | 10 | 35 | 1.6 | 4.8 | 0.00 | 0.00 | 0.00 | 88 | 1015.1 |
| 20260510024257 | 10 | 53 | 1.6 | 4.8 | 0.00 | 0.00 | 0.00 | 88 | 1015.1 |
| 20260510023253 | 10 | 45 | 1.6 | 4.8 | 0.00 | 0.00 | 0.00 | 88 | 1015.2 |
| 20260510023222 | 10 | 40 | 1.6 | 4.8 | 0.00 | 0.00 | 0.00 | 88 | 1015.1 |
| 20260510021254 | 10 | 58 | 1.6 | 6.4 | 0.00 | 0.00 | 0.00 | 87 | 1015.1 |
| 20260510020254 | 10 | 58 | 1.6 | 3.2 | 0.00 | 0.00 | 0.00 | 87 | 1015.3 |
| 20260510015255 | 10 | 58 | 1.6 | 4.8 | 0.00 | 0.00 | 0.00 | 87 | 1015.1 |
| 20260510014413 | 10 | 44 | 1.6 | 3.2 | 0.00 | 0.00 | 0.00 | 86 | 1015.2 |
| 20260510014309 | 10 | 42 | 1.6 | 4.8 | 0.00 | 0.00 | 0.00 | 87 | 1015.2 |
| 20260510012257 | 10 | 44 | 1.6 | 3.2 | 0.00 | 0.00 | 0.00 | 86 | 1015.4 |
| 20260510011253 | 10 | 44 | 1.6 | 4.8 | 0.00 | 0.00 | 0.00 | 85 | 1015.4 |
| 20260510010248 | 10 | 55 | 1.6 | 4.8 | 0.00 | 0.00 | 0.00 | 85 | 1015.5 |
| 20260510005249 | 10 | 0 | 1.6 | 3.2 | 0.00 | 0.00 | 0.00 | 85 | 1015.5 |
| 20260510004248 | 10 | 0 | 1.6 | 4.8 | 0.00 | 0.00 | 0.00 | 84 | 1015.6 |
| 20260510003251 | 11 | 41 | 1.6 | 4.8 | 0.00 | 0.00 | 0.00 | 83 | 1015.7 |
| 20260510002246 | 11 | 41 | 1.6 | 3.2 | 0.00 | 0.00 | 0.00 | 82 | 1015.8 |
| 20260510001249 | 11 | 41 | 1.6 | 3.2 | 0.00 | 0.00 | 0.00 | 82 | 1015.9 |
| 20260510000248 | 11 | 41 | 1.6 | 4.8 | 0.00 | 0.00 | 0.00 | 82 | 1015.9 |
| 20260509235245 | 11 | 41 | 1.6 | 6.4 | 0.00 | 0.00 | 0.00 | 81 | 1015.9 |
| 20260509234244 | 11 | 41 | 1.6 | 4.8 | 0.00 | 0.00 | 0.00 | 80 | 1016.0 |
| 20260509233245 | 11 | 41 | 1.6 | 4.8 | 0.00 | 0.00 | 0.00 | 80 | 1016.1 |
| 20260509232246 | 11 | 41 | 1.6 | 4.8 | 0.00 | 0.00 | 0.00 | 79 | 1016.1 |
| 20260509231242 | 11 | 41 | 1.6 | 4.8 | 0.00 | 0.00 | 0.00 | 78 | 1016.1 |
| 20260509230241 | 11 | 41 | 1.6 | 3.2 | 0.00 | 0.00 | 0.00 | 77 | 1016.2 |
| 20260509225241 | 11 | 41 | 1.6 | 4.8 | 0.00 | 0.00 | 0.00 | 77 | 1016.2 |
| 20260509224243 | 11 | 41 | 1.6 | 4.8 | 0.00 | 0.00 | 0.00 | 76 | 1016.3 |
| 20260509223242 | 11 | 42 | 1.6 | 3.2 | 0.00 | 0.00 | 0.00 | 76 | 1016.3 |
| 20260509222240 | 11 | 341 | 1.6 | 3.2 | 0.00 | 0.00 | 0.00 | 75 | 1016.3 |
| 20260509221735 | 11 | 30 | 1.6 | 3.2 | 0.00 | 0.00 | 0.00 | 74 | 1016.2 |
| 20260509220240 | 11 | 34 | 1.6 | 6.4 | 0.00 | 0.00 | 0.00 | 73 | 1016.3 |
| 20260509215240 | 12 | 21 | 1.6 | 4.8 | 0.00 | 0.00 | 0.00 | 71 | 1016.2 |
| 20260509214242 | 12 | 19 | 1.6 | 3.2 | 0.00 | 0.00 | 0.00 | 69 | 1016.3 |
| 20260509213241 | 12 | 33 | 1.6 | 4.8 | 0.00 | 0.00 | 0.00 | 68 | 1016.3 |
| 20260509212324 | 12 | 350 | 1.6 | 4.8 | 0.00 | 0.00 | 0.00 | 68 | 1016.3 |
| 20260509212245 | 12 | 45 | 1.6 | 6.4 | 0.00 | 0.00 | 0.00 | 67 | 1016.3 |
| 20260509210235 | 13 | 0 | 1.6 | 3.2 | 0.00 | 0.00 | 0.00 | 68 | 1016.2 |
| 20260509205316 | 13 | 332 | 1.6 | 4.8 | 0.00 | 0.00 | 0.00 | 68 | 1016.1 |
| 20260509204348 | 13 | 54 | 1.6 | 4.8 | 0.00 | 0.00 | 0.00 | 68 | 1016.1 |
| 20260509204246 | 13 | 37 | 3.2 | 6.4 | 0.00 | 0.00 | 0.00 | 68 | 1016.1 |
| 20260509202234 | 13 | 54 | 1.6 | 4.8 | 0.00 | 0.00 | 0.00 | 68 | 1016.1 |
| 20260509201232 | 13 | 54 | 1.6 | 3.2 | 0.00 | 0.00 | 0.00 | 68 | 1016.1 |
| 20260509200232 | 13 | 54 | 1.6 | 6.4 | 0.00 | 0.00 | 0.00 | 68 | 1016.1 |
| 20260509200210 | 14 | 5 | 1.6 | 4.8 | 0.00 | 0.00 | 0.00 | 67 | 1016.0 |
| 20260509194233 | 14 | 28 | 1.6 | 8.0 | 0.00 | 0.00 | 0.00 | 66 | 1015.9 |
| 20260509193754 | 15 | 91 | 3.2 | 8.0 | 0.00 | 0.00 | 0.00 | 62 | 1015.8 |
| 20260509193520 | 15 | 338 | 1.6 | 6.4 | 0.00 | 0.00 | 0.00 | 64 | 1015.8 |
| 20260509193257 | 15 | 5 | 1.6 | 6.4 | 0.00 | 0.00 | 0.00 | 65 | 1015.9 |
| 20260509191245 | 15 | 22 | 3.2 | 8.0 | 0.00 | 0.00 | 0.00 | 64 | 1015.8 |
| 20260509185234 | 16 | 23 | 3.2 | 8.0 | 0.00 | 0.00 | 0.00 | 62 | 1015.9 |
| 20260509184228 | 16 | 37 | 3.2 | 16.1 | 0.00 | 0.00 | 0.00 | 61 | 1015.9 |
| 20260509183239 | 16 | 63 | 3.2 | 9.7 | 0.00 | 0.00 | 0.00 | 60 | 1015.8 |
| 20260509182234 | 17 | 53 | 3.2 | 14.5 | 0.00 | 0.00 | 0.00 | 59 | 1015.6 |
| 20260509181252 | 18 | 42 | 4.8 | 17.7 | 0.00 | 0.00 | 0.00 | 57 | 1015.5 |
| 20260509181232 | 17 | 53 | 4.8 | 14.5 | 0.00 | 0.00 | 0.00 | 58 | 1015.6 |
| 20260509180414 | 17 | 30 | 4.8 | 11.3 | 0.00 | 0.00 | 0.00 | 57 | 1015.6 |
| 20260509175322 | 18 | 17 | 3.2 | 9.7 | 0.00 | 0.00 | 0.00 | 57 | 1015.6 |
| 20260509173237 | 18 | 9 | 4.8 | 19.3 | 0.00 | 0.00 | 0.00 | 56 | 1015.4 |
| 20260509172440 | 19 | 338 | 4.8 | 14.5 | 0.00 | 0.00 | 0.00 | 55 | 1015.3 |
| 20260509172241 | 18 | 324 | 8.0 | 24.1 | 0.00 | 0.00 | 0.00 | 55 | 1015.4 |
| 20260509170758 | 20 | 35 | 6.4 | 14.5 | 0.00 | 0.00 | 0.00 | 53 | 1015.3 |
| 20260509170326 | 20 | 69 | 4.8 | 20.9 | 0.00 | 0.00 | 0.00 | 54 | 1015.2 |
| 20260509164236 | 20 | 315 | 9.7 | 24.1 | 0.00 | 0.00 | 0.00 | 52 | 1015.4 |
| 20260509163231 | 20 | 9 | 8.0 | 19.3 | 0.00 | 0.00 | 0.00 | 51 | 1015.3 |
| 20260509162417 | 21 | 79 | 4.8 | 12.9 | 0.00 | 0.00 | 0.00 | 47 | 1015.3 |
| 20260509162238 | 21 | 49 | 4.8 | 11.3 | 0.00 | 0.00 | 0.00 | 49 | 1015.3 |
| 20260509160937 | 22 | 40 | 4.8 | 12.9 | 0.00 | 0.00 | 0.00 | 46 | 1015.3 |
| 20260509160300 | 21 | 44 | 4.8 | 16.1 | 0.00 | 0.00 | 0.00 | 47 | 1015.4 |
| 20260509155353 | 22 | 72 | 3.2 | 8.0 | 0.00 | 0.00 | 0.00 | 46 | 1015.4 |
| 20260509155226 | 21 | 46 | 3.2 | 12.9 | 0.00 | 0.00 | 0.00 | 48 | 1015.4 |
| 20260509152222 | 21 | 34 | 4.8 | 17.7 | 0.00 | 0.00 | 0.00 | 48 | 1015.3 |
| 20260509151554 | 21 | 31 | 4.8 | 17.7 | 0.00 | 0.00 | 0.00 | 44 | 1015.1 |
| 20260509151246 | 21 | 0 | 3.2 | 11.3 | 0.00 | 0.00 | 0.00 | 47 | 1015.3 |
| 20260509150245 | 21 | 15 | 4.8 | 9.7 | 0.00 | 0.00 | 0.00 | 47 | 1015.3 |
| 20260509144215 | 22 | 25 | 4.8 | 16.1 | 0.00 | 0.00 | 0.00 | 44 | 1015.3 |
| 20260509143226 | 22 | 46 | 3.2 | 9.7 | 0.00 | 0.00 | 0.00 | 45 | 1015.5 |
| 20260509142222 | 22 | 16 | 4.8 | 14.5 | 0.00 | 0.00 | 0.00 | 43 | 1015.5 |
| 20260509141312 | 21 | 51 | 4.8 | 17.7 | 0.00 | 0.00 | 0.00 | 46 | 1015.7 |
| 20260509141216 | 21 | 297 | 3.2 | 6.4 | 0.00 | 0.00 | 0.00 | 48 | 1015.6 |
| 20260509135213 | 22 | 67 | 3.2 | 12.9 | 0.00 | 0.00 | 0.00 | 44 | 1015.7 |
| 20260509134222 | 22 | 65 | 3.2 | 9.7 | 0.00 | 0.00 | 0.00 | 43 | 1015.8 |
| 20260509133218 | 21 | 51 | 1.6 | 12.9 | 0.00 | 0.00 | 0.00 | 46 | 1015.8 |
| 20260509132215 | 21 | 17 | 4.8 | 16.1 | 0.00 | 0.00 | 0.00 | 44 | 1015.8 |
| 20260509131218 | 22 | 66 | 4.8 | 14.5 | 0.00 | 0.00 | 0.00 | 43 | 1015.9 |
| 20260509130230 | 22 | 320 | 4.8 | 16.1 | 0.00 | 0.00 | 0.00 | 43 | 1016.0 |
| 20260509125221 | 21 | 50 | 4.8 | 14.5 | 0.00 | 0.00 | 0.00 | 46 | 1016.1 |
| 20260509124215 | 22 | 344 | 3.2 | 12.9 | 0.00 | 0.00 | 0.00 | 44 | 1016.3 |
| 20260509124144 | 22 | 47 | 3.2 | 11.3 | 0.00 | 0.00 | 0.00 | 45 | 1016.4 |
| 20260509122212 | 22 | 67 | 1.6 | 8.0 | 0.00 | 0.00 | 0.00 | 44 | 1016.6 |
| 20260509121208 | 23 | 36 | 3.2 | 14.5 | 0.00 | 0.00 | 0.00 | 42 | 1016.6 |
| 20260509120212 | 22 | 31 | 3.2 | 6.4 | 0.00 | 0.00 | 0.00 | 44 | 1016.8 |
| 20260509115206 | 22 | 64 | 4.8 | 14.5 | 0.00 | 0.00 | 0.00 | 44 | 1016.8 |
| 20260509115019 | 21 | 57 | 4.8 | 16.1 | 0.00 | 0.00 | 0.00 | 46 | 1017.2 |
| 20260509114303 | 22 | 105 | 3.2 | 9.7 | 0.00 | 0.00 | 0.00 | 46 | 1016.9 |
| 20260509113224 | 21 | 71 | 3.2 | 16.1 | 0.00 | 0.00 | 0.00 | 47 | 1017.1 |
| 20260509112204 | 20 | 91 | 3.2 | 14.5 | 0.00 | 0.00 | 0.00 | 49 | 1017.1 |
| 20260509110208 | 21 | 98 | 4.8 | 16.1 | 0.00 | 0.00 | 0.00 | 45 | 1017.2 |
| 20260509105410 | 21 | 101 | 4.8 | 19.3 | 0.00 | 0.00 | 0.00 | 48 | 1017.3 |
| 20260509105223 | 21 | 49 | 4.8 | 19.3 | 0.00 | 0.00 | 0.00 | 48 | 1017.3 |
| 20260509103205 | 21 | 115 | 3.2 | 8.0 | 0.00 | 0.00 | 0.00 | 47 | 1017.4 |
| 20260509103146 | 20 | 54 | 4.8 | 14.5 | 0.00 | 0.00 | 0.00 | 50 | 1017.7 |
| 20260509102322 | 21 | 11 | 6.4 | 16.1 | 0.00 | 0.00 | 0.00 | 48 | 1017.6 |
| 20260509101251 | 21 | 71 | 3.2 | 14.5 | 0.00 | 0.00 | 0.00 | 49 | 1017.6 |
| 20260509095208 | 20 | 66 | 4.8 | 17.7 | 0.00 | 0.00 | 0.00 | 48 | 1017.8 |
| 20260509094214 | 20 | 46 | 4.8 | 16.1 | 0.00 | 0.00 | 0.00 | 49 | 1017.8 |
| 20260509093210 | 20 | 347 | 6.4 | 17.7 | 0.00 | 0.00 | 0.00 | 51 | 1017.9 |
| 20260509092209 | 20 | 49 | 3.2 | 12.9 | 0.00 | 0.00 | 0.00 | 51 | 1017.9 |
| 20260509091210 | 20 | 49 | 3.2 | 11.3 | 0.00 | 0.00 | 0.00 | 53 | 1017.8 |
| 20260509090216 | 20 | 74 | 3.2 | 8.0 | 0.00 | 0.00 | 0.00 | 53 | 1017.8 |
| 20260509085201 | 19 | 59 | 3.2 | 14.5 | 0.00 | 0.00 | 0.00 | 53 | 1017.6 |
| 20260509084202 | 18 | 84 | 3.2 | 12.9 | 0.00 | 0.00 | 0.00 | 53 | 1017.7 |
| 20260509083205 | 18 | 59 | 6.4 | 11.3 | 0.00 | 0.00 | 0.00 | 56 | 1017.8 |
| 20260509082218 | 18 | 42 | 3.2 | 11.3 | 0.00 | 0.00 | 0.00 | 59 | 1017.8 |
| 20260509081203 | 17 | 61 | 3.2 | 11.3 | 0.00 | 0.00 | 0.00 | 59 | 1017.7 |
| 20260509080531 | 17 | 55 | 1.6 | 6.4 | 0.00 | 0.00 | 0.00 | 61 | 1017.7 |
| 20260509080222 | 17 | 92 | 3.2 | 12.9 | 0.00 | 0.00 | 0.00 | 60 | 1017.8 |
| 20260509074203 | 16 | 40 | 3.2 | 12.9 | 0.00 | 0.00 | 0.00 | 62 | 1017.7 |
| 20260509073158 | 16 | 63 | 3.2 | 8.0 | 0.00 | 0.00 | 0.00 | 64 | 1017.9 |
| 20260509072207 | 16 | 65 | 3.2 | 8.0 | 0.00 | 0.00 | 0.00 | 64 | 1017.8 |
| 20260509071159 | 15 | 59 | 3.2 | 8.0 | 0.00 | 0.00 | 0.00 | 68 | 1017.9 |
| 20260509070149 | 15 | 49 | 3.2 | 8.0 | 0.00 | 0.00 | 0.00 | 69 | 1017.8 |
| 20260509065200 | 14 | 41 | 3.2 | 8.0 | 0.00 | 0.00 | 0.00 | 70 | 1017.7 |